DW0489 Weather Reports


Display with metric or nautical units.
time (UTC)temp
F
wind
direction
speed
MPH
gust
MPH
rain 1hr
in
rain 24hr
in
rain mn
in
humidity
%
barometer
mb
20260504081515 40 238 3.0 5.0 0.00 0.00 0.00 76 1012.0
20260504050020 40 284 0.0 0.0 0.00 0.00 0.00 77 1011.6
20260504044533 40 284 0.0 0.0 0.00 0.00 0.00 76 1011.5
20260504043018 41 273 0.0 0.0 0.00 0.00 0.00 74 1011.4
20260504041522 41 273 0.0 0.0 0.00 0.00 0.00 73 1011.4
20260504040022 41 264 0.0 0.0 0.00 0.00 0.00 73 1011.4
20260504034531 41 260 0.0 0.0 0.00 0.00 0.00 72 1011.3
20260504033031 42 260 0.0 0.0 0.00 0.00 0.00 72 1011.3
20260504031520 42 257 0.0 0.0 0.00 0.00 0.00 69 1011.3
20260504030017 42 247 0.0 0.0 0.00 0.00 0.00 66 1011.3
20260504024515 43 245 0.0 2.0 0.00 0.00 0.00 65 1011.2
20260504023024 43 245 0.0 1.0 0.00 0.00 0.00 62 1011.3
20260504021531 44 243 0.0 1.0 0.00 0.00 0.00 61 1011.3
20260504020021 45 243 0.0 1.0 0.00 0.00 0.00 59 1011.3
20260504014521 46 239 0.0 2.0 0.00 0.00 0.00 57 1011.3
20260504013029 47 243 0.0 3.0 0.00 0.00 0.00 55 1011.2
20260504011518 48 239 0.0 2.0 0.00 0.00 0.00 50 1011.1
20260504010023 49 244 1.0 2.0 0.00 0.00 0.00 45 1010.9
20260504004522 51 243 1.0 2.0 0.00 0.00 0.00 44 1010.7
20260504003003 52 245 1.0 3.0 0.00 0.00 0.00 41 1010.5
20260504001503 53 298 0.0 5.0 0.00 0.00 0.00 38 1010.2
20260504000004 53 271 2.0 3.0 0.00 0.00 0.00 37 1010.0
20260503234503 54 297 1.0 4.0 0.00 0.00 0.00 34 1009.9
20260503233002 54 280 2.0 6.0 0.00 0.00 0.00 36 1009.6
20260503231508 55 309 3.0 6.0 0.00 0.00 0.00 35 1009.5
20260503230004 55 284 2.0 11.0 0.00 0.00 0.00 34 1009.4
20260503224503 56 305 4.0 11.0 0.00 0.00 0.00 33 1009.2
20260503223002 56 305 8.0 12.0 0.00 0.00 0.00 33 1009.1
20260503221503 56 288 5.0 17.0 0.00 0.00 0.00 35 1009.1
20260503220008 56 339 4.0 15.0 0.00 0.00 0.00 35 1009.1
20260503214504 56 325 9.0 16.0 0.00 0.00 0.00 33 1009.1
20260503213010 56 331 4.0 9.0 0.00 0.00 0.00 37 1009.1
20260503211514 55 347 7.0 16.0 0.00 0.00 0.00 36 1009.1
20260503210005 56 302 4.0 12.0 0.00 0.00 0.00 34 1009.2
20260503204506 56 326 6.0 17.0 0.00 0.00 0.00 38 1009.2
20260503203007 55 284 7.0 14.0 0.00 0.00 0.00 39 1009.2
20260503201523 56 314 4.0 12.0 0.00 0.00 0.00 38 1009.2
20260503200010 55 310 6.0 15.0 0.00 0.00 0.00 40 1009.3
20260503194506 56 354 5.0 16.0 0.00 0.00 0.00 42 1009.3
20260503193010 54 289 7.0 18.0 0.00 0.00 0.00 40 1009.4
20260503191509 55 307 6.0 21.0 0.00 0.00 0.00 43 1009.6
20260503190018 53 298 11.0 18.0 0.00 0.00 0.00 43 1009.6
20260503184510 53 299 3.0 19.0 0.00 0.00 0.00 44 1009.7
20260503183017 52 307 9.0 19.0 0.00 0.00 0.00 41 1009.8
20260503181524 51 345 7.0 18.0 0.00 0.00 0.00 41 1009.8
20260503180012 52 303 8.0 15.0 0.00 0.00 0.00 42 1009.6
20260503174510 51 343 7.0 17.0 0.00 0.00 0.00 42 1009.6
20260503173028 52 247 7.0 19.0 0.00 0.00 0.00 43 1009.7
20260503171512 52 212 12.0 18.0 0.00 0.00 0.00 40 1009.7